CW8078 Weather Reports


time (UTC)temp
F
wind
direction
speed
knots
gust
knots
rain 1hr
in
rain 24hr
in
rain mn
in
humidity
%
barometer
mb
20260505163803 51 275 0.0 0.9 0.01 0.43 0.43 85 1010.2
20260505163303 51 323 0.0 0.9 0.00 0.42 0.42 85 1009.9
20260505161303 51 9 0.0 0.0 0.00 0.42 0.42 83 1009.8
20260505160803 51 9 0.0 0.0 0.00 0.42 0.42 84 1009.5
20260505160303 52 9 0.0 0.0 0.00 0.42 0.42 82 1009.4
20260505153303 52 299 0.0 0.0 0.00 0.42 0.42 75 1008.4
20260505151803 52 12 0.0 7.0 0.00 0.42 0.42 79 1007.6
20260505151303 52 5 0.0 0.9 0.00 0.42 0.42 82 1007.5
20260505150803 51 3 0.0 2.6 0.00 0.42 0.42 83 1007.4
20260505150303 51 24 0.0 1.7 0.00 0.42 0.42 81 1007.4
20260505140303 51 7 0.0 0.9 0.00 0.42 0.42 85 1007.4
20260505130303 49 34 0.0 0.9 0.00 0.42 0.42 89 1007.1
20260505124803 49 22 0.0 0.9 0.00 0.42 0.42 90 1007.1
20260505124303 49 12 0.0 0.0 0.00 0.42 0.42 90 1007.4
20260505123804 49 337 0.0 0.0 0.00 0.42 0.42 89 1007.4
20260505121803 49 23 0.0 0.9 0.00 0.42 0.42 89 1007.4
20260505121303 49 329 0.0 0.0 0.01 0.42 0.42 89 1007.2
20260505120802 49 346 0.0 1.7 0.02 0.42 0.42 90 1007.3
20260505120303 49 316 0.0 2.6 0.03 0.42 0.42 90 1007.4
20260505114804 48 337 0.0 2.6 0.05 0.42 0.42 88 1006.4
20260505114302 48 17 0.0 1.7 0.07 0.42 0.42 89 1006.0
20260505113802 48 2 0.0 1.7 0.09 0.42 0.42 88 1005.8
20260505113303 48 49 0.9 8.7 0.10 0.42 0.42 88 1005.5
20260505111803 49 46 0.0 7.8 0.13 0.42 0.42 88 1005.8
20260505111303 49 352 0.0 0.9 0.14 0.41 0.41 90 1006.4
20260505110803 49 313 0.0 2.6 0.15 0.40 0.40 90 1005.1
20260505110303 49 357 0.0 2.6 0.15 0.39 0.39 90 1005.7
20260505101803 50 356 0.0 12.2 0.12 0.29 0.29 87 1007.1
20260505101303 51 312 0.0 11.3 0.10 0.27 0.27 88 1006.8
20260505100803 51 324 0.0 2.6 0.08 0.25 0.25 88 1007.1
20260505100302 51 325 0.0 5.2 0.07 0.24 0.24 86 1007.1
20260505094803 52 312 0.9 8.7 0.05 0.22 0.22 85 1006.2
20260505094303 52 341 0.0 2.6 0.04 0.21 0.21 88 1005.7
20260505093303 53 22 0.0 6.1 0.01 0.17 0.17 86 1005.7
20260505091803 53 345 0.9 7.0 0.01 0.17 0.17 82 1004.9
20260505091303 54 10 0.0 4.3 0.01 0.17 0.17 83 1004.5
20260505090803 54 334 0.0 10.4 0.01 0.17 0.17 82 1004.4
20260505090303 55 10 0.9 15.6 0.02 0.17 0.17 80 1004.4
20260505084803 57 337 0.0 2.6 0.14 0.17 0.17 85 1004.3
20260505084303 57 315 1.7 8.7 0.14 0.17 0.17 85 1003.9
20260505083803 57 12 0.0 8.7 0.15 0.17 0.17 88 1003.9
20260505083303 58 354 0.0 7.0 0.15 0.16 0.16 88 1003.9
20260505081803 58 10 0.0 0.9 0.16 0.16 0.16 86 1003.6
20260505081303 58 343 0.0 2.6 0.16 0.16 0.16 85 1003.5
20260505080303 59 345 0.0 11.3 0.15 0.15 0.15 84 1003.3
20260505074803 62 293 0.0 1.7 0.03 0.03 0.03 85 1003.1
20260505074303 62 354 0.0 0.0 0.03 0.03 0.03 85 1003.0
20260505073803 63 31 0.0 0.0 0.02 0.02 0.02 83 1002.7
20260505073303 64 31 0.0 0.0 0.01 0.01 0.01 81 1002.7
20260505071803 66 321 0.0 0.0 0.00 0.00 0.00 74 1002.5
20260505070803 68 343 0.0 0.0 0.00 0.00 0.00 73 1002.4
20260505070303 68 343 0.0 0.0 0.00 0.00 0.00 70 1002.4
20260505064803 68 343 0.0 0.0 0.00 0.00 0.00 70 1002.5
20260505064303 68 343 0.0 0.0 0.00 0.00 0.00 68 1002.5
20260505063803 69 343 0.0 0.0 0.00 0.00 0.00 68 1002.4
20260505063302 69 343 0.0 0.0 0.00 0.00 0.00 68 1002.4
20260505061803 69 14 0.0 0.0 0.00 0.00 0.00 68 1003.1
20260505060803 69 283 0.0 0.0 0.00 0.00 0.00 69 1002.7
20260505054803 70 165 0.0 0.0 0.00 0.00 0.00 66 1001.6
20260505054303 70 165 0.0 0.0 0.00 0.00 0.00 65 1001.5
20260505053804 70 165 0.0 0.0 0.00 0.00 0.00 65 1001.5
20260505051803 70 138 0.0 0.0 0.00 0.00 0.00 64 1001.5
20260505051303 71 138 0.0 0.0 0.00 0.00 0.00 64 1001.3
20260505050303 71 150 0.0 0.0 0.00 0.00 0.00 64 1001.3
20260505041303 71 171 0.0 0.0 0.00 0.00 0.00 62 1000.8
20260505040803 72 171 0.0 0.0 0.00 0.00 0.00 62 1000.6
20260505040303 72 171 0.0 1.7 0.00 0.00 0.00 62 1000.5
20260505034803 71 173 0.0 0.0 0.00 0.00 0.00 63 1001.0
20260505033803 71 193 0.0 0.0 0.00 0.00 0.00 64 1001.3
20260505033303 71 193 0.0 0.9 0.00 0.00 0.00 64 1001.3
20260505031804 71 193 0.0 0.0 0.00 0.00 0.00 64 1001.3
20260505030803 71 193 0.0 0.0 0.00 0.00 0.00 65 1001.4
20260505030303 71 193 0.0 0.0 0.00 0.00 0.00 65 1001.4
20260505024803 71 193 0.0 0.0 0.00 0.00 0.00 64 1001.3
20260505024303 71 193 0.0 0.9 0.00 0.00 0.00 65 1001.3
20260505023303 71 193 0.0 0.0 0.00 0.00 0.00 66 1001.2
20260505021803 71 193 0.0 0.0 0.00 0.00 0.00 65 1001.0
20260505020803 72 193 0.0 0.0 0.00 0.00 0.00 64 1000.8
20260505020303 72 193 0.0 0.0 0.00 0.00 0.00 64 1000.7
20260505014803 73 193 0.0 0.0 0.00 0.00 0.00 61 1000.5
20260505014304 73 193 0.0 0.0 0.00 0.00 0.00 60 1000.4
20260505013803 74 193 0.0 0.0 0.00 0.00 0.00 59 1000.3
20260505013303 74 193 0.0 1.7 0.00 0.00 0.00 59 1000.2
20260505011303 75 198 0.0 0.9 0.00 0.00 0.00 58 1000.0
20260505010303 75 198 0.0 0.9 0.00 0.00 0.00 56 1000.0
20260505003803 77 145 0.0 0.0 0.00 0.00 0.00 54 999.8
20260505003303 77 128 0.0 0.9 0.00 0.00 0.00 53 999.7
20260505001803 78 223 0.0 0.0 0.00 0.00 0.00 52 999.8
20260505001303 78 221 0.0 0.0 0.00 0.00 0.00 52 999.8
20260504234803 79 218 0.0 0.9 0.00 0.00 0.00 50 999.5
20260504234303 79 182 0.0 0.0 0.00 0.00 0.00 50 999.5
20260504233804 79 172 0.0 2.6 0.00 0.00 0.00 49 999.5
20260504233303 80 189 0.0 4.3 0.00 0.00 0.00 50 999.5
20260504231803 80 211 0.0 1.7 0.00 0.00 0.00 49 999.5
20260504231303 80 185 0.0 0.0 0.00 0.00 0.00 49 999.6
20260504230303 80 195 0.0 5.2 0.00 0.00 0.00 48 999.5
20260504223803 81 184 0.9 5.2 0.00 0.00 0.00 47 999.5
20260504223303 81 196 0.0 4.3 0.00 0.00 0.00 47 999.5
20260504221803 81 215 0.0 0.0 0.00 0.00 0.00 49 999.5
20260504221303 81 196 0.0 0.0 0.00 0.00 0.00 48 999.5
20260504220804 81 188 0.0 0.0 0.00 0.00 0.00 48 999.6
20260504214803 81 225 0.0 2.6 0.00 0.00 0.00 48 999.6
20260504214303 81 200 0.9 8.7 0.00 0.00 0.00 47 999.7
20260504213803 81 181 1.7 7.0 0.00 0.00 0.00 48 999.6
20260504213303 81 193 0.9 7.0 0.00 0.00 0.00 48 999.7
20260504211804 81 203 0.9 7.0 0.00 0.00 0.00 48 999.8
20260504210804 81 209 0.0 2.6 0.00 0.00 0.00 48 999.8
20260504210304 81 203 0.0 4.3 0.00 0.00 0.00 49 999.9
20260504204803 80 191 0.0 5.2 0.00 0.00 0.00 48 1000.0
20260504203804 80 218 0.0 0.0 0.00 0.00 0.00 49 1000.0
20260504201803 81 194 0.9 4.3 0.00 0.00 0.00 47 1000.2
20260504201303 81 214 0.9 4.3 0.00 0.00 0.00 48 1000.2
20260504200803 81 208 0.0 0.9 0.00 0.00 0.00 48 1000.3
20260504200303 81 225 0.0 4.3 0.00 0.00 0.00 49 1000.3
20260504194803 81 200 0.9 5.2 0.00 0.00 0.00 47 1000.5
20260504194303 81 180 0.0 0.9 0.00 0.00 0.00 47 1000.6
20260504193804 81 207 0.0 2.6 0.00 0.00 0.00 47 1000.7
20260504193304 81 213 0.0 5.2 0.00 0.00 0.00 46 1000.8
20260504191803 81 210 0.0 2.6 0.00 0.00 0.00 48 1000.9
20260504191303 80 206 0.0 2.6 0.00 0.00 0.00 48 1000.9
20260504190803 80 191 0.9 5.2 0.00 0.00 0.00 46 1000.9
20260504190303 80 191 0.0 6.1 0.00 0.00 0.00 50 1000.9
20260504184803 81 204 0.0 4.3 0.00 0.00 0.00 48 1001.2
20260504184303 81 213 0.0 2.6 0.00 0.00 0.00 50 1001.2
20260504183803 81 212 0.0 2.6 0.00 0.00 0.00 50 1001.2
20260504183304 80 188 0.0 7.0 0.00 0.00 0.00 54 1001.2
20260504181804 78 171 0.0 0.9 0.00 0.00 0.00 52 1001.3
20260504181304 78 164 0.0 0.0 0.00 0.00 0.00 56 1001.4
20260504180803 77 180 0.0 0.0 0.00 0.00 0.00 58 1001.5
20260504180303 76 161 0.0 0.9 0.00 0.00 0.00 58 1001.6
20260504174803 74 145 0.0 0.0 0.00 0.00 0.00 66 1001.9
20260504174303 73 153 0.0 0.9 0.00 0.00 0.00 67 1001.8
20260504173803 71 252 0.0 0.0 0.00 0.00 0.00 79 1001.9
20260504173303 68 208 0.0 1.7 0.00 0.00 0.00 84 1001.9
20260504171303 67 140 0.0 0.0 0.00 0.00 0.00 71 1001.9
20260504170803 67 198 0.0 0.0 0.00 0.00 0.00 74 1002.4
20260504170303 68 198 0.0 0.0 0.00 0.00 0.00 76 1002.4